SVA115 OEDF-OMDB

Flight info

Callsign SVA115
Flight time 1h 9m
Altitude 25000
Route ROTEL DCT DAVRI P559 VUTEB
Aircraft A333/H-SDE3GHIJ2J3J5M1RVWXY/LB2D1

Departure

Time 2026-04-26 18:50
Airport King Fahd International Airport (OEDF)

Arrival

Time 2026-04-26 20:00
Airport Dubai International Airport (OMDB)
Time Latitude Longitude Altitude Speed Heading
2026-04-26 18:14 26.46271 49.79431 68 ft 0 kts 265°
2026-04-26 18:42 26.46271 49.79438 69 ft 2 kts 258°
2026-04-26 18:43 26.46275 49.79454 69 ft 2 kts 256°
2026-04-26 18:43 26.46278 49.79471 69 ft 2 kts 260°
2026-04-26 18:43 26.46280 49.79486 70 ft 2 kts 266°
2026-04-26 18:43 26.46281 49.79497 70 ft 2 kts 266°
2026-04-26 18:44 26.46282 49.79506 70 ft 2 kts 232°
2026-04-26 18:44 26.46287 49.79512 70 ft 2 kts 208°
2026-04-26 18:44 26.46293 49.79515 71 ft 1 kts 186°
2026-04-26 18:44 26.46299 49.79515 71 ft 1 kts 175°
2026-04-26 18:45 26.46302 49.79515 71 ft 0 kts 176°
2026-04-26 18:47 26.46301 49.79515 71 ft 1 kts 176°
2026-04-26 18:47 26.46254 49.79519 70 ft 12 kts 175°
2026-04-26 18:47 26.46136 49.79533 68 ft 20 kts 166°
2026-04-26 18:47 26.46000 49.79564 68 ft 18 kts 188°
2026-04-26 18:48 26.45938 49.79479 66 ft 14 kts 250°
2026-04-26 18:48 26.45879 49.79403 65 ft 12 kts 191°
2026-04-26 18:48 26.45760 49.79423 65 ft 21 kts 165°
2026-04-26 18:48 26.45609 49.79467 64 ft 23 kts 165°
2026-04-26 18:49 26.45477 49.79458 62 ft 12 kts 231°
2026-04-26 18:49 26.45442 49.79377 62 ft 11 kts 255°
2026-04-26 18:49 26.45421 49.79286 62 ft 12 kts 255°
2026-04-26 18:49 26.45435 49.79210 63 ft 10 kts 314°
2026-04-26 18:50 26.45526 49.79173 65 ft 20 kts 346°
2026-04-26 18:50 26.45830 49.79080 65 ft 86 kts 343°
2026-04-26 18:50 26.46714 49.78823 143 ft 167 kts 348°
2026-04-26 18:50 26.47941 49.78440 789 ft 206 kts 346°
2026-04-26 18:51 26.49629 49.77999 1133 ft 282 kts 349°
2026-04-26 18:51 26.51575 49.77432 1996 ft 293 kts 345°
2026-04-26 18:51 26.53506 49.76741 2930 ft 292 kts 345°
2026-04-26 18:51 26.55397 49.76130 4192 ft 282 kts 344°
2026-04-26 18:52 26.57219 49.75550 5375 ft 271 kts 343°
2026-04-26 18:52 26.59048 49.75435 6403 ft 266 kts
2026-04-26 18:52 26.60658 49.76303 7461 ft 258 kts 40°
2026-04-26 18:52 26.61843 49.77768 8742 ft 259 kts 47°
2026-04-26 18:53 26.62861 49.79236 10092 ft 238 kts 59°
2026-04-26 18:53 26.63477 49.80991 11159 ft 247 kts 73°
2026-04-26 18:53 26.63874 49.82753 12544 ft 236 kts 76°
2026-04-26 18:53 26.64207 49.84492 13612 ft 235 kts 78°
2026-04-26 18:54 26.64526 49.86296 14465 ft 244 kts 78°
2026-04-26 18:54 26.64843 49.88144 15374 ft 248 kts 79°
2026-04-26 18:54 26.65168 49.90051 16202 ft 254 kts 79°
2026-04-26 18:54 26.65496 49.91989 16962 ft 262 kts 79°
2026-04-26 18:55 26.65840 49.94026 17715 ft 271 kts 79°
2026-04-26 18:55 26.66191 49.96096 18445 ft 281 kts 79°
2026-04-26 18:55 26.66569 49.98342 18909 ft 303 kts 79°
2026-04-26 18:55 26.66970 50.00711 19378 ft 324 kts 79°
2026-04-26 18:56 26.67399 50.03263 19850 ft 346 kts 79°
2026-04-26 18:56 26.67856 50.05987 20292 ft 368 kts 79°
2026-04-26 18:56 26.68346 50.08895 20704 ft 392 kts 79°
2026-04-26 18:56 26.68860 50.11959 21087 ft 415 kts 79°
2026-04-26 18:57 26.69400 50.15178 21498 ft 436 kts 79°
2026-04-26 18:57 26.69775 50.17427 21990 ft 443 kts 79°
2026-04-26 18:57 26.70524 50.21907 22925 ft 437 kts 79°
2026-04-26 18:57 26.71094 50.25328 22995 ft 452 kts 79°
2026-04-26 18:58 26.71669 50.28774 23446 ft 456 kts 79°
2026-04-26 18:58 26.72251 50.32271 23985 ft 457 kts 78°
2026-04-26 18:58 26.72833 50.35773 24384 ft 462 kts 79°
2026-04-26 18:58 26.73415 50.39281 24799 ft 465 kts 78°
2026-04-26 18:59 26.74010 50.42881 24926 ft 472 kts 78°
2026-04-26 18:59 26.74604 50.46471 24879 ft 470 kts 78°
2026-04-26 18:59 26.75187 50.50009 24905 ft 464 kts 78°
2026-04-26 18:59 26.75778 50.53585 24910 ft 464 kts 78°
2026-04-26 19:00 26.76353 50.57097 24912 ft 465 kts 78°
2026-04-26 19:00 26.76937 50.60647 24909 ft 465 kts 78°
2026-04-26 19:00 26.77525 50.64230 24913 ft 465 kts 79°
2026-04-26 19:00 26.78103 50.67762 24893 ft 464 kts 79°
2026-04-26 19:01 26.78686 50.71329 24895 ft 464 kts 79°
2026-04-26 19:01 26.79255 50.74829 24901 ft 464 kts 79°
2026-04-26 19:01 26.79839 50.78404 24904 ft 464 kts 79°
2026-04-26 19:01 26.80408 50.81913 24901 ft 465 kts 79°
2026-04-26 19:02 26.80986 50.85463 24900 ft 464 kts 79°
2026-04-26 19:02 26.81565 50.89044 24901 ft 464 kts 79°
2026-04-26 19:02 26.81999 50.91737 24903 ft 463 kts 79°
2026-04-26 19:02 26.82241 50.94130 24883 ft 463 kts 89°
2026-04-26 19:03 26.81556 50.98789 24894 ft 457 kts 112°
2026-04-26 19:03 26.80686 51.01117 24904 ft 456 kts 117°
2026-04-26 19:03 26.80012 51.02873 24901 ft 457 kts 116°
2026-04-26 19:03 26.78772 51.06111 24885 ft 456 kts 116°
2026-04-26 19:04 26.77534 51.09368 24881 ft 455 kts 115°
2026-04-26 19:04 26.76452 51.12728 24884 ft 458 kts 112°
2026-04-26 19:04 26.75390 51.16077 24880 ft 458 kts 112°
2026-04-26 19:04 26.74327 51.19402 24880 ft 457 kts 112°
2026-04-26 19:05 26.72180 51.26094 24880 ft 459 kts 112°
2026-04-26 19:05 26.71108 51.29432 24881 ft 458 kts 112°
2026-04-26 19:05 26.70022 51.32814 24877 ft 457 kts 112°
2026-04-26 19:06 26.68957 51.36118 24881 ft 457 kts 112°
2026-04-26 19:06 26.67874 51.39479 24880 ft 457 kts 112°
2026-04-26 19:06 26.66798 51.42812 24881 ft 458 kts 112°
2026-04-26 19:06 26.65726 51.46141 24876 ft 456 kts 112°
2026-04-26 19:07 26.64655 51.49482 24881 ft 456 kts 112°
2026-04-26 19:07 26.63580 51.52825 24876 ft 456 kts 112°
2026-04-26 19:07 26.62506 51.56159 24878 ft 456 kts 112°
2026-04-26 19:07 26.61439 51.59478 24882 ft 457 kts 112°
2026-04-26 19:08 26.60366 51.62808 24878 ft 456 kts 112°
2026-04-26 19:08 26.59293 51.66134 24873 ft 455 kts 113°
2026-04-26 19:08 26.58228 51.69432 24861 ft 455 kts 113°
2026-04-26 19:08 26.57153 51.72759 24866 ft 454 kts 113°
2026-04-26 19:09 26.56087 51.76051 24865 ft 455 kts 113°
2026-04-26 19:09 26.55004 51.79402 24866 ft 455 kts 113°
2026-04-26 19:09 26.53934 51.82706 24861 ft 455 kts 113°
2026-04-26 19:09 26.52867 51.85998 24865 ft 455 kts 113°
2026-04-26 19:10 26.51770 51.89338 24865 ft 455 kts 113°
2026-04-26 19:10 26.50684 51.92608 24863 ft 454 kts 113°
2026-04-26 19:10 26.49577 51.95938 24865 ft 454 kts 113°
2026-04-26 19:10 26.48483 51.99227 24863 ft 454 kts 113°
2026-04-26 19:11 26.47386 52.02525 24864 ft 455 kts 113°
2026-04-26 19:11 26.46287 52.05822 24865 ft 455 kts 113°
2026-04-26 19:11 26.45185 52.09127 24860 ft 454 kts 113°
2026-04-26 19:11 26.44088 52.12414 24864 ft 454 kts 113°
2026-04-26 19:12 26.42989 52.15703 24862 ft 453 kts 113°
2026-04-26 19:12 26.41888 52.18994 24860 ft 454 kts 113°
2026-04-26 19:12 26.40791 52.22274 24862 ft 455 kts 113°
2026-04-26 19:12 26.39678 52.25594 24861 ft 454 kts 113°
2026-04-26 19:13 26.38579 52.28871 24858 ft 453 kts 113°
2026-04-26 19:13 26.37477 52.32156 24863 ft 454 kts 113°
2026-04-26 19:13 26.36361 52.35477 24866 ft 455 kts 113°
2026-04-26 19:13 26.35240 52.38771 24871 ft 455 kts 115°
2026-04-26 19:14 26.34000 52.42002 24877 ft 453 kts 116°
2026-04-26 19:14 26.32766 52.45211 24867 ft 453 kts 116°
2026-04-26 19:14 26.31529 52.48434 24865 ft 453 kts 116°
2026-04-26 19:14 26.30707 52.50576 24866 ft 453 kts 116°
2026-04-26 19:15 26.29060 52.54868 24867 ft 453 kts 116°
2026-04-26 19:15 26.27823 52.58085 24863 ft 454 kts 116°
2026-04-26 19:15 26.26576 52.61329 24862 ft 454 kts 116°
2026-04-26 19:15 26.25335 52.64558 24860 ft 453 kts 116°
2026-04-26 19:16 26.24095 52.67775 24850 ft 453 kts 116°
2026-04-26 19:16 26.22872 52.70972 24852 ft 453 kts 116°
2026-04-26 19:16 26.21641 52.74192 24849 ft 454 kts 116°
2026-04-26 19:16 26.20406 52.77417 24849 ft 454 kts 116°
2026-04-26 19:17 26.19159 52.80673 24849 ft 453 kts 116°
2026-04-26 19:17 26.17924 52.83894 24850 ft 455 kts 116°
2026-04-26 19:17 26.16684 52.87124 24845 ft 453 kts 116°
2026-04-26 19:17 26.15445 52.90350 24844 ft 454 kts 116°
2026-04-26 19:18 26.14206 52.93574 24844 ft 455 kts 116°
2026-04-26 19:18 26.12975 52.96773 24841 ft 454 kts 116°
2026-04-26 19:18 26.11730 53.00010 24843 ft 453 kts 116°
2026-04-26 19:18 26.10485 53.03237 24840 ft 453 kts 116°
2026-04-26 19:19 26.09285 53.06481 24841 ft 455 kts 115°
2026-04-26 19:19 26.08092 53.09735 24843 ft 455 kts 115°
2026-04-26 19:19 26.06910 53.12950 24839 ft 456 kts 115°
2026-04-26 19:19 26.05706 53.16224 24840 ft 455 kts 115°
2026-04-26 19:20 26.04513 53.19467 24839 ft 454 kts 115°
2026-04-26 19:20 26.03718 53.21623 24839 ft 455 kts 115°
2026-04-26 19:20 26.02127 53.25943 24841 ft 455 kts 115°
2026-04-26 19:20 26.00920 53.29214 24840 ft 456 kts 115°
2026-04-26 19:21 25.99794 53.32262 24839 ft 455 kts 115°
2026-04-26 19:21 25.99311 53.33572 24838 ft 455 kts 115°
2026-04-26 19:21 25.98292 53.36328 24840 ft 454 kts 115°
2026-04-26 19:21 25.97158 53.39392 24835 ft 454 kts 115°
2026-04-26 19:22 25.95964 53.42618 24837 ft 454 kts 115°
2026-04-26 19:22 25.94758 53.45873 24842 ft 455 kts 115°
2026-04-26 19:22 25.93563 53.49096 24841 ft 455 kts 115°
2026-04-26 19:22 25.92415 53.52383 24842 ft 456 kts 112°
2026-04-26 19:23 25.91291 53.55659 24852 ft 456 kts 113°
2026-04-26 19:23 25.90165 53.58931 24846 ft 456 kts 113°
2026-04-26 19:23 25.89031 53.62217 24846 ft 455 kts 113°
2026-04-26 19:23 25.87894 53.65514 24844 ft 456 kts 113°
2026-04-26 19:24 25.86755 53.68816 24832 ft 456 kts 113°
2026-04-26 19:24 25.85623 53.72085 24834 ft 455 kts 113°
2026-04-26 19:24 25.83351 53.78635 24841 ft 456 kts 113°
2026-04-26 19:25 25.82223 53.81887 24841 ft 455 kts 113°
2026-04-26 19:25 25.81459 53.84080 24843 ft 456 kts 113°
2026-04-26 19:25 25.79949 53.88425 24838 ft 455 kts 113°
2026-04-26 19:25 25.78808 53.91701 24837 ft 456 kts 113°
2026-04-26 19:26 25.77664 53.94988 24833 ft 454 kts 113°
2026-04-26 19:26 25.76520 53.98265 24830 ft 456 kts 113°
2026-04-26 19:26 25.75405 54.01501 24786 ft 450 kts 112°
2026-04-26 19:26 25.74406 54.04776 24492 ft 439 kts 110°
2026-04-26 19:27 25.73461 54.07874 24497 ft 421 kts 111°
2026-04-26 19:27 25.72527 54.10918 24271 ft 410 kts 111°
2026-04-26 19:27 25.71611 54.13902 23736 ft 409 kts 111°
2026-04-26 19:27 25.70704 54.16850 23198 ft 409 kts 111°
2026-04-26 19:28 25.69790 54.19816 22659 ft 407 kts 111°
2026-04-26 19:28 25.68869 54.22802 22237 ft 406 kts 111°
2026-04-26 19:28 25.67965 54.25736 22317 ft 397 kts 111°
2026-04-26 19:28 25.67096 54.28552 22305 ft 382 kts 111°
2026-04-26 19:29 25.66257 54.31270 22277 ft 367 kts 111°
2026-04-26 19:29 25.65440 54.33913 22201 ft 354 kts 112°
2026-04-26 19:29 25.64657 54.36437 22070 ft 344 kts 112°
2026-04-26 19:29 25.63887 54.38921 21896 ft 337 kts 112°
2026-04-26 19:30 25.63135 54.41347 21779 ft 327 kts 112°
2026-04-26 19:30 25.62412 54.43678 21765 ft 314 kts 112°
2026-04-26 19:30 25.61722 54.45896 21706 ft 304 kts 112°
2026-04-26 19:30 25.61267 54.47358 21578 ft 301 kts 112°
2026-04-26 19:31 25.60368 54.50247 21276 ft 297 kts 112°
2026-04-26 19:31 25.59696 54.52404 21014 ft 295 kts 112°
2026-04-26 19:31 25.59026 54.54554 20796 ft 292 kts 112°
2026-04-26 19:31 25.58371 54.56658 20541 ft 290 kts 112°
2026-04-26 19:32 25.57703 54.58742 20284 ft 287 kts 117°
2026-04-26 19:32 25.56871 54.60723 20059 ft 283 kts 120°
2026-04-26 19:32 25.56033 54.62687 19830 ft 280 kts 120°
2026-04-26 19:32 25.55208 54.64617 19596 ft 277 kts 119°
2026-04-26 19:33 25.54385 54.66548 19361 ft 275 kts 120°
2026-04-26 19:33 25.53571 54.68456 19120 ft 272 kts 120°
2026-04-26 19:33 25.52766 54.70343 18836 ft 272 kts 120°
2026-04-26 19:33 25.51962 54.72223 18543 ft 272 kts 120°
2026-04-26 19:34 25.51149 54.74130 18272 ft 272 kts 120°
2026-04-26 19:34 25.50346 54.76006 18003 ft 271 kts 120°
2026-04-26 19:34 25.49542 54.77889 17727 ft 270 kts 120°
2026-04-26 19:34 25.48759 54.79779 17442 ft 272 kts 114°
2026-04-26 19:35 25.48333 54.81820 17130 ft 277 kts 97°
2026-04-26 19:35 25.48418 54.83948 16813 ft 280 kts 81°
2026-04-26 19:35 25.48861 54.86051 16526 ft 280 kts 75°
2026-04-26 19:35 25.49421 54.88085 16260 ft 279 kts 72°
2026-04-26 19:36 25.50038 54.90116 16004 ft 278 kts 71°
2026-04-26 19:36 25.50472 54.91472 15833 ft 277 kts 70°
2026-04-26 19:36 25.51362 54.94104 15503 ft 275 kts 69°
2026-04-26 19:36 25.52055 54.96094 15244 ft 274 kts 68°
2026-04-26 19:37 25.52741 54.98052 15007 ft 273 kts 68°
2026-04-26 19:37 25.53422 54.99990 14761 ft 271 kts 68°
2026-04-26 19:37 25.54076 55.01936 14514 ft 270 kts 75°
2026-04-26 19:37 25.54133 55.03982 14218 ft 268 kts 104°
2026-04-26 19:38 25.53385 55.05831 13942 ft 264 kts 124°
2026-04-26 19:38 25.52441 55.07587 13702 ft 263 kts 121°
2026-04-26 19:38 25.51534 55.09329 13461 ft 262 kts 121°
2026-04-26 19:38 25.50635 55.11060 13220 ft 261 kts 121°
2026-04-26 19:39 25.49726 55.12813 12983 ft 260 kts 121°
2026-04-26 19:39 25.48834 55.14531 12743 ft 259 kts 121°
2026-04-26 19:39 25.47940 55.16253 12506 ft 258 kts 121°
2026-04-26 19:39 25.47049 55.17967 12252 ft 257 kts 121°
2026-04-26 19:40 25.46151 55.19675 11991 ft 256 kts 125°
2026-04-26 19:40 25.45007 55.21173 11708 ft 254 kts 135°
2026-04-26 19:40 25.43831 55.22608 11495 ft 253 kts 134°
2026-04-26 19:40 25.42650 55.24060 11256 ft 252 kts 134°
2026-04-26 19:41 25.41481 55.25495 10981 ft 252 kts 134°
2026-04-26 19:41 25.40317 55.26925 10755 ft 251 kts 134°
2026-04-26 19:41 25.39137 55.28374 10527 ft 250 kts 134°
2026-04-26 19:41 25.38374 55.29310 10378 ft 250 kts 134°
2026-04-26 19:42 25.36823 55.31215 10075 ft 249 kts 134°
2026-04-26 19:42 25.35667 55.32661 9843 ft 249 kts 128°
2026-04-26 19:42 25.34742 55.34274 9610 ft 250 kts 122°
2026-04-26 19:42 25.33834 55.35918 9389 ft 250 kts 122°
2026-04-26 19:43 25.32905 55.37592 9710 ft 260 kts 122°
2026-04-26 19:43 25.32008 55.39207 10673 ft 243 kts 123°
2026-04-26 19:43 25.31095 55.40844 10758 ft 253 kts 123°
2026-04-26 19:43 25.30180 55.42487 10411 ft 260 kts 123°
2026-04-26 19:44 25.29194 55.44255 9818 ft 275 kts 122°
2026-04-26 19:44 25.28189 55.46061 9466 ft 278 kts 122°
2026-04-26 19:44 25.27169 55.47892 9192 ft 278 kts 123°
2026-04-26 19:44 25.26172 55.49682 8925 ft 277 kts 122°
2026-04-26 19:45 25.25151 55.51518 8628 ft 278 kts 122°
2026-04-26 19:45 25.24145 55.53327 8341 ft 278 kts 122°
2026-04-26 19:45 25.23136 55.55140 8030 ft 280 kts 122°
2026-04-26 19:45 25.22116 55.56973 7751 ft 280 kts 122°
2026-04-26 19:46 25.21098 55.58801 7459 ft 280 kts 122°
2026-04-26 19:46 25.20069 55.60649 7127 ft 282 kts 122°
2026-04-26 19:46 25.19037 55.62501 6819 ft 283 kts 121°
2026-04-26 19:46 25.18010 55.64347 6541 ft 283 kts 121°
2026-04-26 19:47 25.16981 55.66195 6230 ft 284 kts 122°
2026-04-26 19:47 25.16297 55.67423 5995 ft 286 kts 122°
2026-04-26 19:47 25.14905 55.69919 5572 ft 287 kts 122°
2026-04-26 19:47 25.13853 55.71806 5269 ft 287 kts 122°
2026-04-26 19:48 25.12799 55.73692 4942 ft 288 kts 121°
2026-04-26 19:48 25.11756 55.75560 4649 ft 288 kts 122°
2026-04-26 19:48 25.10710 55.77432 4343 ft 288 kts 121°
2026-04-26 19:48 25.09659 55.79310 4186 ft 281 kts 121°
2026-04-26 19:49 25.08660 55.81099 4187 ft 269 kts 122°
2026-04-26 19:49 25.07693 55.82822 4140 ft 259 kts 122°
2026-04-26 19:49 25.06498 55.84262 4010 ft 251 kts 150°
2026-04-26 19:49 25.04893 55.84848 3841 ft 239 kts 183°
2026-04-26 19:50 25.03343 55.84493 3666 ft 225 kts 211°
2026-04-26 19:50 25.01969 55.83699 3514 ft 220 kts 216°
2026-04-26 19:50 25.00934 55.82534 3301 ft 207 kts 250°
2026-04-26 19:50 25.00742 55.81035 3113 ft 197 kts 284°
2026-04-26 19:51 25.01274 55.79706 3082 ft 186 kts 300°
2026-04-26 19:51 25.01910 55.78489 3077 ft 180 kts 300°
2026-04-26 19:51 25.02546 55.77317 3079 ft 177 kts 301°
2026-04-26 19:51 25.03183 55.76158 3074 ft 177 kts 301°
2026-04-26 19:52 25.03834 55.74987 3073 ft 178 kts 301°
2026-04-26 19:52 25.04483 55.73822 3078 ft 179 kts 302°
2026-04-26 19:52 25.05136 55.72654 3068 ft 179 kts 301°
2026-04-26 19:52 25.05794 55.71475 3070 ft 180 kts 302°
2026-04-26 19:53 25.06447 55.70306 3069 ft 180 kts 301°
2026-04-26 19:53 25.07106 55.69124 3069 ft 180 kts 301°
2026-04-26 19:53 25.07761 55.67952 3068 ft 181 kts 302°
2026-04-26 19:53 25.08411 55.66785 3062 ft 180 kts 302°
2026-04-26 19:54 25.09071 55.65602 3070 ft 180 kts 302°
2026-04-26 19:54 25.09729 55.64423 3075 ft 181 kts 302°
2026-04-26 19:54 25.10394 55.63231 3073 ft 182 kts 302°
2026-04-26 19:54 25.11052 55.62049 3067 ft 180 kts 302°
2026-04-26 19:55 25.11704 55.60878 3063 ft 181 kts 302°
2026-04-26 19:55 25.12361 55.59701 3066 ft 179 kts 302°
2026-04-26 19:55 25.13018 55.58522 3066 ft 179 kts 302°
2026-04-26 19:55 25.13644 55.57323 3057 ft 179 kts 293°
2026-04-26 19:56 25.14232 55.56118 3077 ft 179 kts 304°
2026-04-26 19:56 25.14917 55.54962 3066 ft 179 kts 303°
2026-04-26 19:56 25.15596 55.53777 3072 ft 195 kts 303°
2026-04-26 19:56 25.16391 55.52375 3129 ft 231 kts 302°
2026-04-26 19:57 25.17235 55.50870 3056 ft 230 kts 302°
2026-04-26 19:57 25.18064 55.49385 3001 ft 220 kts 302°
2026-04-26 19:57 25.18823 55.48023 2721 ft 194 kts 302°
2026-04-26 19:57 25.19469 55.46863 2423 ft 166 kts 301°
2026-04-26 19:58 25.20018 55.45877 2253 ft 133 kts 302°
2026-04-26 19:58 25.20491 55.45050 1952 ft 128 kts 302°
2026-04-26 19:58 25.20988 55.44185 1649 ft 139 kts 302°
2026-04-26 19:58 25.21498 55.43276 1353 ft 140 kts 301°
2026-04-26 19:59 25.22006 55.42349 1042 ft 142 kts 300°
2026-04-26 19:59 25.22505 55.41399 829 ft 141 kts 299°
2026-04-26 19:59 25.23025 55.40487 571 ft 141 kts 301°
2026-04-26 19:59 25.23552 55.39583 311 ft 140 kts 300°
2026-04-26 20:00 25.24046 55.38673 119 ft 136 kts 298°
2026-04-26 20:00 25.24516 55.37823 57 ft 90 kts 300°
2026-04-26 20:00 25.24597 55.37669 54 ft 0 kts 288°
2026-04-26 20:00 25.24609 55.37584 53 ft 23 kts 274°
2026-04-26 20:01 25.24621 55.37395 53 ft 23 kts 274°
2026-04-26 20:01 25.24651 55.37226 52 ft 22 kts 294°
2026-04-26 20:01 25.24732 55.37074 50 ft 22 kts 304°
2026-04-26 20:01 25.24809 55.36944 50 ft 17 kts 297°
2026-04-26 20:02 25.24851 55.36823 50 ft 16 kts 284°
2026-04-26 20:02 25.24879 55.36704 50 ft 15 kts 284°
2026-04-26 20:02 25.24916 55.36593 49 ft 15 kts 301°
2026-04-26 20:02 25.24956 55.36519 45 ft 17 kts 298°
2026-04-26 20:03 25.24992 55.36316 32 ft 20 kts 287°
2026-04-26 20:03 25.25001 55.36205 32 ft 13 kts 256°
2026-04-26 20:03 25.24975 55.36167 31 ft 0 kts 216°
2026-04-26 20:03 25.24973 55.36164 31 ft 2 kts 219°
2026-04-26 20:04 25.24958 55.36150 31 ft 1 kts 220°
2026-04-26 20:04 25.24955 55.36148 31 ft 0 kts 219°